VANOK Weather Reports


Display with metric or nautical units.
time (UTC)temp
F
wind
direction
speed
MPH
gust
MPH
rain 1hr
in
rain 24hr
in
rain mn
in
humidity
%
barometer
mb
20260507112728 51 290 8.0 11.0 0.00 0.00 0.00 31 1016.8
20260507110728 50 297 8.0 11.0 0.00 0.00 0.00 35 1016.7
20260507104728 49 298 8.0 12.0 0.00 0.00 0.00 38 1016.6
20260507102728 51 269 6.0 11.0 0.00 0.00 0.00 38 1016.6
20260507100728 49 284 6.0 9.0 0.00 0.00 0.00 41 1016.3
20260507092728 51 146 2.0 4.0 0.00 0.00 0.00 32 1016.2
20260507090729 48 127 3.0 6.0 0.00 0.00 0.00 37 1016.2
20260507084728 49 96 3.0 5.0 0.00 0.00 0.00 35 1016.2
20260507082728 48 89 6.0 8.0 0.00 0.00 0.00 36 1016.2
20260507080728 48 92 5.0 7.0 0.00 0.00 0.00 35 1016.2
20260507074728 49 91 7.0 9.0 0.00 0.00 0.00 36 1016.2
20260507072728 48 102 7.0 11.0 0.00 0.00 0.00 40 1016.2
20260507070727 48 75 7.0 10.0 0.00 0.00 0.00 38 1016.2
20260507064728 48 59 7.0 12.0 0.00 0.00 0.00 40 1016.1
20260507062727 46 65 7.0 12.0 0.00 0.00 0.00 43 1016.0
20260507060727 45 68 8.0 11.0 0.00 0.00 0.00 44 1015.9
20260507055051 46 75 7.0 11.0 0.00 0.00 0.00 46 1015.9
20260507052727 45 62 7.0 11.0 0.00 0.00 0.00 43 1015.7
20260507050727 43 62 7.0 10.0 0.00 0.00 0.00 51 1015.7
20260507044727 42 40 5.0 9.0 0.00 0.00 0.00 55 1015.6
20260507042727 41 33 5.0 9.0 0.00 0.00 0.00 58 1015.6
20260507040728 41 42 7.0 11.0 0.00 0.00 0.00 52 1015.5
20260507034728 40 39 9.0 11.0 0.00 0.00 0.00 54 1015.5
20260507032728 40 39 9.0 11.0 0.00 0.00 0.00 57 1015.4
20260507030728 38 29 8.0 10.0 0.00 0.00 0.00 62 1015.4
20260507024727 37 26 8.0 10.0 0.00 0.00 0.00 65 1015.4
20260507022727 38 24 7.0 9.0 0.00 0.00 0.00 61 1015.3
20260507020727 37 13 7.0 9.0 0.00 0.00 0.00 64 1015.2
20260507014727 38 31 9.0 11.0 0.00 0.00 0.00 59 1015.2
20260507012727 37 15 6.0 8.0 0.00 0.00 0.00 68 1015.2
20260507010727 35 29 7.0 10.0 0.00 0.00 0.00 70 1015.1
20260507004726 40 36 10.0 11.0 0.00 0.00 0.00 59 1014.8
20260507002727 38 10 7.0 9.0 0.00 0.00 0.00 71 1014.8
20260507000727 36 49 8.0 12.0 0.00 0.00 0.00 68 1014.6
20260506234727 40 53 11.0 13.0 0.00 0.00 0.00 55 1014.6
20260506232726 40 47 11.0 13.0 0.00 0.00 0.00 52 1014.6
20260506230728 40 42 11.0 14.0 0.00 0.00 0.00 56 1014.6
20260506224726 40 40 12.0 13.0 0.00 0.00 0.00 56 1014.7
20260506222727 40 40 11.0 12.0 0.00 0.00 0.00 62 1014.6
20260506220726 40 35 11.0 13.0 0.00 0.00 0.00 61 1014.6
20260506214726 40 29 11.0 12.0 0.00 0.00 0.00 63 1014.5
20260506212726 38 18 7.0 8.0 0.00 0.00 0.00 78 1014.6
20260506210726 36 11 9.0 9.0 0.00 0.00 0.00 79 1014.5
20260506204726 37 8 9.0 10.0 0.00 0.00 0.00 76 1014.4
20260506202726 37 5 9.0 10.0 0.00 0.00 0.00 76 1014.5
20260506200726 40 353 10.0 11.0 0.00 0.00 0.00 71 1014.6
20260506194726 40 334 9.0 10.0 0.00 0.00 0.00 68 1014.7
20260506192726 42 314 9.0 11.0 0.00 0.00 0.00 64 1014.7
20260506190726 42 308 10.0 11.0 0.00 0.00 0.00 65 1014.7
20260506184725 42 304 11.0 12.0 0.00 0.00 0.00 67 1014.6
20260506182726 43 296 9.0 11.0 0.00 0.00 0.00 65 1014.6
20260506180726 44 295 9.0 11.0 0.00 0.00 0.00 62 1014.6
20260506174726 44 289 8.0 11.0 0.00 0.00 0.00 59 1014.7
20260506172724 45 288 7.0 9.0 0.00 0.00 0.00 56 1014.8
20260506170725 45 291 7.0 9.0 0.00 0.00 0.00 60 1014.8
20260506164724 45 293 8.0 11.0 0.00 0.00 0.00 58 1014.8
20260506162726 46 287 7.0 10.0 0.00 0.00 0.00 54 1014.8
20260506160725 46 280 7.0 11.0 0.00 0.00 0.00 52 1014.8
20260506154725 46 270 7.0 9.0 0.00 0.00 0.00 56 1014.9
20260506152725 46 275 6.0 9.0 0.00 0.00 0.00 56 1015.0
20260506150724 47 265 7.0 9.0 0.00 0.00 0.00 56 1015.0
20260506144724 46 271 7.0 10.0 0.00 0.00 0.00 56 1015.1
20260506142724 47 227 7.0 9.0 0.00 0.00 0.00 54 1015.2
20260506140724 47 255 8.0 10.0 0.00 0.00 0.00 54 1015.3
20260506134724 47 239 9.0 12.0 0.00 0.00 0.00 57 1015.2
20260506132724 47 244 9.0 13.0 0.00 0.00 0.00 62 1015.2
20260506130724 46 221 11.0 13.0 0.00 0.00 0.00 65 1015.4
20260506124724 47 221 10.0 13.0 0.00 0.00 0.00 62 1015.3
20260506122724 48 235 9.0 12.0 0.00 0.00 0.00 56 1015.1
20260506120724 48 226 10.0 14.0 0.00 0.00 0.00 49 1015.3
20260506114724 48 226 9.0 12.0 0.00 0.00 0.00 55 1015.3